EW7271 Weather Reports


Display with metric or nautical units.
time (UTC)temp
F
wind
direction
speed
MPH
gust
MPH
rain 1hr
in
rain 24hr
in
rain mn
in
humidity
%
barometer
mb
20190619084619 75 181 0.0 2.0 0.00 0.00 0.00 89 1010.6
20190619084129 75 181 0.0 2.0 0.00 0.00 0.00 88 1010.6
20190619083624 75 181 0.0 2.0 0.00 0.00 0.00 88 1010.7
20190619083112 75 181 0.0 2.0 0.00 0.00 0.00 89 1010.7
20190619082615 75 181 0.0 0.0 0.00 0.00 0.00 89 1010.9
20190619082103 75 181 0.0 0.0 0.00 0.00 0.00 89 1011.0
20190619081559 75 181 0.0 0.0 0.00 0.00 0.00 88 1011.1
20190619081101 75 181 0.0 0.0 0.00 0.00 0.00 88 1011.1
20190619080548 75 181 0.0 0.0 0.00 0.00 0.00 88 1011.2
20190619080050 75 181 0.0 0.0 0.00 0.00 0.00 88 1011.3
20190619075548 75 181 0.0 0.0 0.00 0.00 0.00 88 1011.3
20190619075048 75 181 0.0 0.0 0.00 0.00 0.00 88 1011.4
20190619074532 75 181 0.0 1.0 0.00 0.00 0.00 88 1011.5
20190619074036 75 180 0.0 1.0 0.00 0.00 0.00 88 1011.5
20190619073534 75 175 0.0 1.0 0.00 0.00 0.00 88 1011.5
20190619073017 75 175 0.0 0.0 0.00 0.00 0.00 88 1011.5
20190619072525 75 175 0.0 2.0 0.00 0.00 0.00 88 1011.6
20190619072031 75 175 0.0 2.0 0.00 0.00 0.00 88 1011.6
20190619071535 75 175 0.0 2.0 0.00 0.00 0.00 88 1011.6
20190619071038 75 259 0.0 2.0 0.00 0.00 0.00 88 1011.8
20190619070531 75 268 0.0 2.0 0.00 0.00 0.00 88 1011.8
20190619070017 75 269 0.0 2.0 0.00 0.00 0.00 88 1011.8
20190619065521 75 26 0.0 1.0 0.00 0.00 0.00 87 1011.8
20190619065013 76 89 0.0 1.0 0.00 0.00 0.00 87 1011.9
20190619064514 76 89 0.0 1.0 0.00 0.00 0.00 87 1011.9
20190619064008 76 92 0.0 2.0 0.00 0.00 0.00 87 1012.0
20190619063502 76 0 0.0 2.0 0.00 0.00 0.00 87 1011.9
20190619062944 76 142 0.0 2.0 0.00 0.00 0.00 87 1011.9
20190619062442 76 134 0.0 2.0 0.00 0.00 0.00 87 1012.0
20190619061943 76 146 0.0 1.0 0.00 0.00 0.00 87 1012.2
20190619061446 76 146 0.0 1.0 0.00 0.00 0.00 86 1012.3
20190619060928 76 145 0.0 1.0 0.00 0.00 0.00 86 1012.4
20190619060434 76 188 0.0 2.0 0.00 0.00 0.00 86 1012.4
20190619055940 76 269 0.0 2.0 0.00 0.00 0.00 86 1012.4
20190619055441 76 269 0.0 2.0 0.00 0.00 0.00 86 1012.5
20190619054923 76 153 0.0 2.0 0.00 0.00 0.00 86 1012.5
20190619054424 76 153 0.0 1.0 0.00 0.00 0.00 86 1012.5
20190619053924 76 148 0.0 3.0 0.00 0.00 0.00 85 1012.7
20190619053426 76 142 0.0 3.0 0.00 0.00 0.00 85 1012.7
20190619052915 76 142 0.0 3.0 0.00 0.00 0.00 86 1012.8
20190619052404 76 140 0.0 3.0 0.00 0.00 0.00 85 1013.0
20190619051914 76 128 0.0 2.0 0.00 0.00 0.00 85 1013.0
20190619051401 76 171 0.0 0.0 0.00 0.00 0.00 85 1013.2
20190619050843 76 171 0.0 0.0 0.00 0.00 0.00 85 1013.2
20190619050341 76 171 0.0 0.0 0.00 0.00 0.00 85 1013.4
20190619045832 76 171 0.0 1.0 0.00 0.00 0.00 84 1013.5
20190619045342 77 171 0.0 0.0 0.00 0.00 0.00 84 1013.5
20190619044836 77 171 0.0 0.0 0.00 0.00 0.00 84 1013.5
20190619044324 77 171 0.0 0.0 0.00 0.00 0.00 84 1013.6
20190619043821 77 171 0.0 0.0 0.00 0.00 0.00 84 1013.5
20190619043313 77 171 0.0 0.0 0.00 0.00 0.00 83 1013.6
20190619042804 77 171 0.0 3.0 0.00 0.00 0.00 83 1013.6
20190619042253 77 171 0.0 3.0 0.00 0.00 0.00 83 1013.6
20190619041802 77 171 0.0 3.0 0.00 0.00 0.00 83 1013.5
20190619041250 77 171 0.0 3.0 0.00 0.00 0.00 82 1013.4
20190619040800 77 181 0.0 2.0 0.00 0.00 0.00 82 1013.5
20190619040251 77 201 0.0 0.0 0.00 0.00 0.00 82 1013.6
20190619035739 77 201 0.0 0.0 0.00 0.00 0.00 82 1013.6
20190619035233 77 201 0.0 0.0 0.00 0.00 0.00 82 1013.6
20190619034734 77 201 0.0 0.0 0.00 0.00 0.00 82 1013.7
20190619034219 77 201 0.0 0.0 0.00 0.00 0.00 82 1013.7
20190619033725 77 201 0.0 1.0 0.00 0.00 0.00 82 1013.7
20190619033219 77 200 0.0 1.0 0.00 0.00 0.00 82 1013.6
20190619032713 77 200 0.0 1.0 0.00 0.00 0.00 81 1013.6
20190619032217 77 200 0.0 1.0 0.00 0.00 0.00 81 1013.6
20190619031724 77 200 0.0 1.0 0.00 0.00 0.00 82 1013.6
20190619031227 78 188 0.0 4.0 0.00 0.00 0.00 81 1013.6
20190619030710 78 188 0.0 4.0 0.00 0.00 0.00 81 1013.6
20190619030152 78 188 0.0 4.0 0.00 0.00 0.00 81 1013.5
20190619025650 78 155 0.0 4.0 0.00 0.00 0.00 80 1013.5
20190619025146 78 242 0.0 1.0 0.00 0.00 0.00 80 1013.6
20190619024655 78 242 0.0 1.0 0.00 0.00 0.00 80 1013.5
20190619024202 78 242 0.0 1.0 0.00 0.00 0.00 79 1013.5
20190619023650 78 242 0.0 0.0 0.00 0.00 0.00 79 1013.5
20190619023152 78 242 0.0 1.0 0.00 0.00 0.00 79 1013.5
20190619022633 78 242 0.0 1.0 0.00 0.00 0.00 78 1013.5
20190619022132 78 242 0.0 1.0 0.00 0.00 0.00 78 1013.4
20190619021631 79 248 0.0 1.0 0.00 0.00 0.00 78 1013.3
20190619021126 79 248 0.0 3.0 0.00 0.00 0.00 78 1013.3
20190619020631 79 236 0.0 3.0 0.00 0.00 0.00 77 1013.3
20190619020129 79 241 0.0 3.0 0.00 0.00 0.00 77 1013.3
20190619015627 79 195 0.0 3.0 0.00 0.00 0.00 77 1013.4
20190619015109 79 65 0.0 3.0 0.00 0.00 0.00 77 1013.3
20190619014604 79 198 0.0 3.0 0.00 0.00 0.00 77 1013.3
20190619014058 79 26 0.0 2.0 0.00 0.00 0.00 77 1013.3
20190619013556 79 88 0.0 2.0 0.00 0.00 0.00 76 1013.3
20190619013101 80 270 0.0 1.0 0.00 0.00 0.00 76 1013.3
20190619012549 80 270 0.0 1.0 0.00 0.00 0.00 76 1013.2
20190619012052 80 201 0.0 1.0 0.00 0.00 0.00 75 1013.2
20190619011534 80 258 0.0 1.0 0.00 0.00 0.00 75 1013.2
20190619011029 81 274 0.0 7.0 0.00 0.00 0.00 74 1013.3
20190619010528 81 274 0.0 7.0 0.00 0.00 0.00 74 1013.3
20190619010030 81 287 0.0 7.0 0.00 0.00 0.00 73 1013.4
20190619005521 81 263 0.0 7.0 0.00 0.00 0.00 73 1013.4
20190619005025 82 303 0.0 6.0 0.00 0.00 0.00 73 1013.4
20190619004529 82 295 0.0 6.0 0.00 0.00 0.00 73 1013.3
20190619004028 82 295 0.0 6.0 0.00 0.00 0.00 72 1013.2
20190619003527 83 152 1.0 6.0 0.00 0.00 0.00 72 1013.2
20190619003032 83 149 1.0 3.0 0.00 0.00 0.00 72 1013.0
20190619002528 83 215 0.0 3.0 0.00 0.00 0.00 71 1013.0
20190619002033 83 297 0.0 7.0 0.00 0.00 0.00 71 1013.0
20190619001525 84 347 1.0 7.0 0.00 0.00 0.00 71 1013.1
20190619001033 84 225 1.0 8.0 0.00 0.00 0.00 71 1013.0
20190619000526 84 95 1.0 8.0 0.00 0.00 0.00 70 1013.0
20190619000032 85 176 1.0 8.0 0.00 0.00 0.00 69 1012.9
20190618235527 85 172 2.0 8.0 0.00 0.00 0.00 68 1012.8
20190618235027 85 164 2.0 8.0 0.00 0.00 0.00 69 1012.9
20190618234513 85 178 2.0 8.0 0.00 0.00 0.00 69 1012.9
20190618234015 86 175 1.0 8.0 0.00 0.00 0.00 68 1012.9
20190618233506 86 223 1.0 7.0 0.00 0.00 0.00 69 1012.8
20190618233004 86 175 1.0 9.0 0.00 0.01 0.00 68 1012.7
20190618232459 86 90 1.0 9.0 0.00 0.01 0.00 68 1012.6
20190618232003 86 163 2.0 9.0 0.00 0.01 0.00 68 1012.6
20190618231449 86 155 2.0 9.0 0.00 0.01 0.00 67 1012.7
20190618230957 86 192 2.0 7.0 0.00 0.01 0.00 67 1012.8
20190618230444 86 215 1.0 13.0 0.00 0.01 0.00 68 1012.8
20190618225950 86 294 1.0 13.0 0.00 0.01 0.00 69 1012.7
20190618225438 87 205 1.0 13.0 0.00 0.01 0.00 69 1012.5
20190618224944 88 107 1.0 6.0 0.00 0.01 0.00 67 1012.5
20190618224442 88 210 1.0 3.0 0.00 0.01 0.00 68 1012.5
20190618223951 88 286 1.0 3.0 0.00 0.01 0.00 67 1012.6
20190618223500 88 229 1.0 6.0 0.00 0.01 0.00 67 1012.6
20190618222952 88 149 1.0 6.0 0.00 0.01 0.00 67 1012.6
20190618222500 88 288 1.0 6.0 0.00 0.01 0.00 67 1012.6
20190618221952 88 160 1.0 6.0 0.00 0.01 0.00 66 1012.6
20190618221455 88 307 1.0 5.0 0.00 0.01 0.00 65 1012.6
20190618220955 88 296 1.0 5.0 0.00 0.01 0.00 68 1012.6
20190618220448 88 276 1.0 5.0 0.00 0.01 0.00 67 1012.6
20190618215949 87 222 1.0 5.0 0.00 0.01 0.00 69 1012.6
20190618215450 87 333 1.0 3.0 0.00 0.01 0.00 71 1012.5
20190618215000 87 288 1.0 6.0 0.00 0.01 0.00 68 1012.5
20190618214501 87 257 1.0 6.0 0.00 0.01 0.00 69 1012.4
20190618213957 88 355 1.0 7.0 0.00 0.01 0.00 67 1012.3
20190618213439 88 217 2.0 7.0 0.00 0.01 0.00 68 1012.3
20190618212939 89 157 3.0 9.0 0.00 0.01 0.00 67 1012.2
20190618212445 89 229 3.0 9.0 0.00 0.01 0.00 66 1012.2
20190618211938 89 131 2.0 9.0 0.00 0.01 0.00 65 1012.3
20190618211433 89 146 2.0 9.0 0.00 0.01 0.00 67 1012.4
20190618210930 88 284 2.0 6.0 0.00 0.01 0.00 68 1012.4
20190618210429 88 190 1.0 7.0 0.00 0.01 0.00 69 1012.4
20190618205920 88 233 0.0 7.0 0.00 0.01 0.00 69 1012.4
20190618205423 88 232 1.0 7.0 0.00 0.01 0.00 66 1012.5
20190618204914 88 153 1.0 7.0 0.00 0.01 0.00 69 1012.5
20190618204414 87 267 1.0 5.0 0.00 0.01 0.00 70 1012.5
20190618203856 87 218 0.0 13.0 0.00 0.01 0.00 69 1012.7
20190618203405 88 224 1.0 13.0 0.00 0.01 0.00 65 1012.7
20190618202913 88 66 2.0 13.0 0.00 0.01 0.00 66 1012.7
20190618202415 88 153 2.0 13.0 0.00 0.01 0.00 65 1012.8
20190618201907 89 116 2.0 10.0 0.00 0.01 0.00 63 1012.8
20190618201405 89 174 2.0 10.0 0.00 0.01 0.00 64 1013.0
20190618200853 89 118 2.0 5.0 0.00 0.01 0.00 65 1013.0
20190618200401 89 273 1.0 6.0 0.00 0.01 0.00 64 1013.1
20190618195910 89 279 2.0 6.0 0.00 0.01 0.00 63 1013.2
20190618195419 88 290 2.0 7.0 0.00 0.01 0.00 68 1013.2
20190618194917 88 165 2.0 7.0 0.00 0.01 0.00 67 1013.2
20190618194412 89 237 2.0 13.0 0.00 0.01 0.00 64 1013.3
20190618193907 89 308 3.0 13.0 0.00 0.01 0.00 65 1013.3
20190618193356 90 125 3.0 13.0 0.00 0.01 0.00 62 1013.4
20190618192852 89 161 2.0 13.0 0.00 0.01 0.00 63 1013.4
20190618192334 89 123 2.0 8.0 0.00 0.01 0.00 67 1013.6
20190618191815 89 306 2.0 8.0 0.00 0.01 0.00 65 1013.7
20190618191312 89 245 2.0 8.0 0.00 0.01 0.00 65 1013.8
20190618190815 89 316 2.0 8.0 0.00 0.01 0.00 65 1013.8
20190618190311 89 307 1.0 7.0 0.00 0.01 0.00 67 1013.9
20190618185812 90 169 1.0 7.0 0.00 0.01 0.00 64 1013.9
20190618185308 90 303 1.0 7.0 0.00 0.01 0.00 61 1014.0
20190618184755 90 254 1.0 7.0 0.00 0.01 0.00 66 1014.2
20190618184300 89 272 1.0 7.0 0.00 0.01 0.00 67 1014.3
20190618183801 89 215 1.0 9.0 0.00 0.01 0.00 63 1014.4
20190618183310 88 5 1.0 9.0 0.00 0.01 0.00 66 1014.5
20190618182752 88 229 2.0 9.0 0.00 0.01 0.00 68 1014.7
20190618182243 89 140 1.0 7.0 0.00 0.01 0.00 65 1014.7
20190618181747 88 137 1.0 6.0 0.00 0.01 0.00 66 1014.7
20190618181242 88 327 2.0 9.0 0.00 0.01 0.00 66 1014.9
20190618180741 88 98 3.0 9.0 0.00 0.01 0.00 64 1014.9
20190618180224 88 13 4.0 9.0 0.00 0.01 0.00 67 1015.0
20190618175711 89 147 4.0 9.0 0.00 0.01 0.00 67 1015.1
20190618175220 88 298 3.0 9.0 0.00 0.01 0.00 69 1015.2
20190618174722 88 258 2.0 9.0 0.00 0.01 0.00 66 1015.2
20190618174205 87 279 2.0 9.0 0.00 0.01 0.00 67 1015.3
20190618173705 88 267 2.0 9.0 0.00 0.01 0.00 68 1015.5
20190618173208 88 311 2.0 9.0 0.00 0.01 0.00 65 1015.5
20190618172658 88 287 2.0 8.0 0.00 0.01 0.00 67 1015.6
20190618172156 88 269 2.0 7.0 0.00 0.01 0.00 66 1015.6
20190618171704 88 108 2.0 10.0 0.00 0.01 0.00 67 1015.7
20190618171144 88 278 2.0 10.0 0.00 0.01 0.00 68 1015.7
20190618170631 88 160 2.0 10.0 0.00 0.01 0.00 64 1015.8
20190618170131 88 273 2.0 10.0 0.00 0.01 0.00 68 1015.8
20190618165624 87 52 2.0 9.0 0.00 0.01 0.00 69 1015.9
20190618165114 87 0 2.0 8.0 0.00 0.01 0.00 67 1015.9
20190618164558 87 197 2.0 6.0 0.00 0.01 0.00 68 1015.9
20190618164044 87 90 2.0 6.0 0.00 0.01 0.00 70 1016.0
20190618163531 88 236 2.0 10.0 0.00 0.01 0.00 68 1016.1
20190618163012 87 75 3.0 10.0 0.00 0.01 0.00 68 1016.0
20190618162458 87 289 3.0 10.0 0.00 0.01 0.00 68 1016.0
20190618161959 87 280 3.0 10.0 0.00 0.01 0.00 70 1016.1
20190618161453 87 267 2.0 12.0 0.00 0.01 0.00 70 1016.0
20190618161003 87 158 3.0 12.0 0.00 0.01 0.00 68 1016.0
20190618160455 87 203 3.0 12.0 0.00 0.01 0.00 68 1016.0
20190618155940 87 311 3.0 12.0 0.00 0.01 0.00 70 1016.0
20190618155443 86 265 3.0 10.0 0.00 0.01 0.00 67 1016.1
20190618154943 86 149 3.0 10.0 0.00 0.01 0.00 68 1016.0
20190618154449 86 312 2.0 6.0 0.00 0.01 0.00 67 1016.0
20190618153937 86 249 2.0 9.0 0.00 0.01 0.00 68 1016.1
20190618153444 86 336 2.0 9.0 0.00 0.01 0.00 68 1016.1
20190618152948 86 342 3.0 9.0 0.00 0.01 0.00 67 1016.2
20190618152429 86 290 3.0 9.0 0.00 0.01 0.00 68 1016.2
20190618151921 86 99 2.0 6.0 0.00 0.01 0.00 71 1016.3
20190618151428 85 130 2.0 9.0 0.00 0.01 0.00 71 1016.2
20190618150933 85 286 2.0 9.0 0.00 0.01 0.00 71 1016.3
20190618150414 85 261 2.0 9.0 0.00 0.01 0.00 71 1016.3
20190618145913 85 243 2.0 9.0 0.00 0.01 0.00 72 1016.4
20190618145414 85 278 2.0 8.0 0.00 0.01 0.00 72 1016.3
20190618144912 85 240 3.0 12.0 0.00 0.01 0.00 73 1016.4
20190618144414 84 284 3.0 12.0 0.00 0.01 0.00 71 1016.5
20190618143918 84 267 2.0 12.0 0.00 0.01 0.00 72 1016.5
20190618143408 84 182 3.0 12.0 0.00 0.01 0.00 71 1016.5
20190618142848 83 0.0 0.0 0.00 0.01 0.00 76 1016.5
20190618142342 84 0.0 0.0 0.00 0.01 0.00 74 1016.5
20190618141840 83 0.0 0.0 0.00 0.01 0.00 76 1016.5
20190618141336 83 0.0 0.0 0.00 0.01 0.00 74 1016.5
20190618140843 83 0.0 0.0 0.00 0.01 0.00 77 1016.6
20190618140328 83 0.0 0.0 0.00 0.01 0.00 78 1016.5
20190618135812 82 0.0 0.0 0.00 0.01 0.00 78 1016.7
20190618135317 82 0.0 0.0 0.00 0.01 0.00 78 1016.7
20190618134823 81 0.0 0.0 0.00 0.01 0.00 81 1016.7
20190618134332 81 0.0 0.0 0.00 0.01 0.00 82 1016.8
20190618133831 80 0.0 0.0 0.00 0.01 0.00 85 1016.8
20190618133330 79 0.0 0.0 0.00 0.01 0.00 84 1016.9
20190618132825 79 0.0 0.0 0.00 0.01 0.00 84 1016.7
20190618132317 79 0.0 0.0 0.00 0.01 0.00 84 1016.8
20190618131820 80 0.0 0.0 0.00 0.01 0.00 84 1016.8
20190618131327 80 0.0 0.0 0.00 0.01 0.00 83 1016.9
20190618130810 80 0.0 0.0 0.00 0.01 0.00 83 1016.8
20190618125509 80 0.0 0.0 0.00 0.01 0.00 83 1016.8
20190618125018 80 0.0 0.0 0.00 0.01 0.00 82 1016.8
20190618124523 80 0.0 0.0 0.00 0.01 0.00 83 1016.8
20190618124014 80 0.0 0.0 0.00 0.01 0.00 84 1016.8
20190618123458 79 0.0 0.0 0.00 0.01 0.00 85 1016.7
20190618122945 79 0.0 0.0 0.00 0.01 0.00 84 1016.8
20190618122447 79 0.0 0.0 0.00 0.01 0.00 86 1016.7
20190618121942 78 0.0 0.0 0.00 0.01 0.00 86 1016.7
20190618121423 78 0.0 0.0 0.00 0.01 0.00 87 1016.7
20190618120927 78 0.0 0.0 0.00 0.01 0.00 88 1016.7
20190618120427 77 0.0 0.0 0.00 0.01 0.00 89 1016.7
20190618115910 77 0.0 0.0 0.00 0.01 0.00 90 1016.7
20190618115358 76 0.0 0.0 0.00 0.01 0.00 92 1016.6
20190618114902 76 0.0 0.0 0.00 0.01 0.00 92 1016.6
20190618114359 75 0.0 0.0 0.00 0.01 0.00 92 1016.6
20190618113901 75 0.0 0.0 0.00 0.01 0.00 93 1016.6
20190618113344 75 0.0 0.0 0.00 0.01 0.00 93 1016.5
20190618112843 74 0.0 0.0 0.00 0.01 0.00 93 1016.6
20190618112328 74 0.0 0.0 0.00 0.01 0.00 93 1016.6
20190618111815 74 0.0 0.0 0.00 0.01 0.00 93 1016.6
20190618111323 74 0.0 0.0 0.00 0.01 0.00 93 1016.5
20190618110825 73 0.0 0.0 0.00 0.01 0.00 93 1016.6
20190618110328 73 0.0 0.0 0.00 0.01 0.00 93 1016.6
20190618105818 73 0.0 0.0 0.00 0.01 0.00 93 1016.6
20190618105305 73 0.0 0.0 0.00 0.01 0.00 93 1016.5
20190618104805 73 0.0 0.0 0.00 0.01 0.00 93 1016.5
20190618104256 73 0.0 0.0 0.00 0.01 0.00 93 1016.5
20190618103745 72 0.0 0.0 0.00 0.01 0.00 93 1016.5
20190618103238 72 0.0 0.0 0.00 0.01 0.00 93 1016.6
20190618102740 72 0.0 0.0 0.00 0.01 0.00 92 1016.8
20190618102224 72 0.0 0.0 0.00 0.01 0.00 92 1016.7
20190618101714 72 0.0 0.0 0.00 0.01 0.00 92 1016.6
20190618101217 72 0.0 0.0 0.00 0.01 0.00 92 1016.5
20190618100701 73 0.0 0.0 0.00 0.01 0.00 92 1016.6
20190618100206 73 0.0 0.0 0.00 0.01 0.00 92 1016.5
20190618095705 73 0.0 0.0 0.00 0.01 0.00 92 1016.6
20190618095209 73 0.0 0.0 0.00 0.01 0.00 92 1016.6
20190618094702 73 0.0 0.0 0.00 0.01 0.00 92 1016.5
20190618094150 73 0.0 0.0 0.00 0.01 0.00 92 1016.5
20190618093659 73 0.0 0.0 0.00 0.01 0.00 92 1016.5
20190618093157 73 0.0 0.0 0.00 0.01 0.00 92 1016.4
20190618092641 73 0.0 0.0 0.00 0.01 0.00 92 1016.4
20190618092140 73 0.0 0.0 0.00 0.01 0.00 92 1016.4
20190618091629 73 0.0 0.0 0.00 0.01 0.00 92 1016.4
20190618091130 73 0.0 0.0 0.00 0.01 0.00 92 1016.4
20190618090616 73 0.0 0.0 0.00 0.01 0.00 92 1016.5
20190618090115 73 0.0 0.0 0.00 0.01 0.00 92 1016.4
20190618085609 73 0.0 0.0 0.00 0.01 0.00 92 1016.5
20190618085111 73 0.0 0.0 0.00 0.01 0.00 92 1016.4